Portada
METAR-TAF:

METAR-TAF

Aeroports :

Jayapura, Indonèsia

latitud: 02-34-37S, longitud: 140-30-58E, altitud: 88 m

Observació

L'informe es va fer fa 31 minuts, a les 08:00 UTC
Vent 3 kt del Nord
Temperatura 28°C
Humitat 70%
Pressió 1007 hPa
Visibilitat 10 km o més
Escasses núvols a una alçada de 1200 ft, Cumulonimbus.
Núvols disperses a una alçada de 1300 ft
xàfecs en les proximitats

METAR: WAJJ 280800Z 01003KT 9999 VCSH FEW012CB SCT013 28/22 Q1007 NOSIG

Hora: 15:31 (08:31 UTC)


TAF: manca

Observacions i pronòstics meteorològics de més de 4000 aeroports (METAR i TAF).

Les estacions disponibles són els punts grocs i vermells al mapa.

Posi el ratolí al punt desitjat per veure el nom de l'estació.

Feu clic per veure les observacions i els pronòstics meteorològics.

Per canviar el mapa: feu clic els botons verds amb una creu de color negre per apropar; al botó verd amb un guió per allunyar la imatge; o en les fletxes verdes per a mapes adjacents.


METAR-TAF: